TimeMST,TemperatureF,Dew PointF,Humidity,Sea Level PressureIn,VisibilityMPH,Wind Direction,Wind SpeedMPH,Gust SpeedMPH,PrecipitationIn,Events,Conditions,WindDirDegrees,DateUTC
12:55 AM,30.0,23.0,75,30.45,10.0,Calm,Calm,-,N/A,,Clear,0,2013-03-02 07:55:00
1:55 AM,30.0,23.0,75,30.45,10.0,Calm,Calm,-,N/A,,Clear,0,2013-03-02 08:55:00
2:55 AM,28.0,21.9,78,30.43,10.0,Calm,Calm,-,N/A,,Clear,0,2013-03-02 09:55:00
3:55 AM,27.0,21.9,81,30.40,10.0,Calm,Calm,-,N/A,,Clear,0,2013-03-02 10:55:00
4:55 AM,27.0,21.9,81,30.41,10.0,Calm,Calm,-,N/A,,Clear,0,2013-03-02 11:55:00
5:55 AM,28.0,23.0,81,30.42,10.0,Calm,Calm,-,N/A,,Clear,0,2013-03-02 12:55:00
6:55 AM,27.0,21.0,78,30.43,10.0,Calm,Calm,-,N/A,,Clear,0,2013-03-02 13:55:00
7:55 AM,28.0,21.9,78,30.41,10.0,Calm,Calm,-,N/A,,Clear,0,2013-03-02 14:55:00
8:55 AM,32.0,25.0,75,30.40,10.0,Calm,Calm,-,N/A,,Clear,0,2013-03-02 15:55:00
9:55 AM,36.0,24.1,62,30.37,10.0,Calm,Calm,-,N/A,,Clear,0,2013-03-02 16:55:00
10:55 AM,37.9,24.1,57,30.33,10.0,Calm,Calm,-,N/A,,Clear,0,2013-03-02 17:55:00
11:55 AM,42.1,26.1,53,30.29,10.0,NNE,3.5,-,N/A,,Clear,30,2013-03-02 18:55:00
12:55 PM,44.1,25.0,47,30.25,10.0,NE,3.5,-,N/A,,Clear,40,2013-03-02 19:55:00
1:55 PM,46.0,25.0,44,30.20,10.0,Calm,Calm,-,N/A,,Clear,0,2013-03-02 20:55:00
2:55 PM,46.9,26.1,44,30.16,10.0,NNE,3.5,-,N/A,,Clear,30,2013-03-02 21:55:00
3:55 PM,48.0,27.0,44,30.12,10.0,North,3.5,-,N/A,,Clear,10,2013-03-02 22:55:00
4:55 PM,48.0,27.0,44,30.10,10.0,Calm,Calm,-,N/A,,Clear,0,2013-03-02 23:55:00
5:55 PM,44.1,28.9,55,30.09,10.0,West,4.6,-,N/A,,Clear,280,2013-03-03 00:55:00
6:55 PM,41.0,28.9,62,30.09,10.0,Calm,Calm,-,N/A,,Scattered Clouds,0,2013-03-03 01:55:00
7:55 PM,41.0,28.0,60,30.06,10.0,NNW,4.6,-,N/A,,Overcast,340,2013-03-03 02:55:00
8:55 PM,37.9,28.0,68,30.06,10.0,WNW,4.6,-,N/A,,Overcast,300,2013-03-03 03:55:00
9:55 PM,37.0,28.0,70,30.05,10.0,NW,3.5,-,N/A,,Overcast,310,2013-03-03 04:55:00
11:55 PM,35.1,27.0,72,29.99,10.0,NNW,3.5,-,N/A,,Mostly Cloudy,330,2013-03-03 06:55:00